Starlink 30894

operational
NORAD ID: 58375 Int'l Des: 2023-178 Owner: SPXS Country: US Constellation: starlink
LEOCIRCULAR

Starlink 30894について

説明を読み込み中...

リアルタイム位置

3D地球を読み込み中...

次回通過

高度履歴

Altitude vs Time

uPlot chart will show altitude changes over time

軌道要素

1 58375U 23178B 25303.85373852 -.00001836 00000-0 -49907-4 0 9996
2 58375 53.1610 244.1006 0001171 74.0938 286.0191 15.30186251109946
Epoch: Oct 30, 2025 • Age: 6 hours

現在のステータス

高度 487.5 km
速度 7.62 km/s
衛星直下点 -36.61°S, 131.4°E
打ち上げ日 Nov 20, 2023
運用期間 1.9 years
タイプ internet

技術仕様

分類 Payload
質量 730.00 kg
乾燥質量 700.00 kg
総質量 730.00 kg
長さ 0.30 m
直径 4.10 m
スパン 29.00 m
形状 Box + pan
製造者 SPXS
バスタイプ Starlink V2M
フェーズステータス In Orbit
所有者/国 SPXS/US

大規模コンステレーション

Loading constellations...